STARLINK-1502, 45764

Orbit data source: Space-Track

STARLINK-1502, 45764 is a payload satellite owned by SpaceX/Seattle (US) in LEO that was launched on Sat, 13 Jun 2020 UTC via an FALCON 9 launch vehicle from the Air Force Eastern Test Range (AFETR). Payload-class satellites include a variety of spacecraft equipped with specific instruments for various scientific and technological missions. These include communications satellites like Starlink; space stations such as the ISS; scientific satellites like the Hubble; Earth observation satellites from companies like Planet Labs, Umbra, and HawkEye 360; GPS; miniature CubeSats for education and research; and military/defense satellites.

Loading next visibility...
Identifier
45764, 2020-038AL
Orbit
LEO
Country
Flag of USUS
Related business
Manufacturer
SpaceX/Seattle
Mission
Partially operational Commercial Communications
Bus & Motor
STARLINK, Unknown motor
Mass
260 kg wet, ~248 kg dry
Launch date (UTC)
2020-06-13 (6 years ago)
Launch vehicle
FALCON 9
Launch site
Air Force Eastern Test Range (AFETR)
Object type
Payload
Rocket body
Debris
Shape & HBR
Box + 1 Pan, 10.1 m
Radar Cross Section
13.562 m², Large (>1 m²)

Expand to show TLE details & history
Last TLE update: 12 hours ago

TLE from 12 hours ago
0 STARLINK-1502
1 45764U 20038AL  26095.33035884  .00112789  00000-0  18575-2 0  9991
2 45764  53.0495  78.3655 0006260  81.3750 278.7968 15.51473643320760
Epoch: 2026-04-05T07:55Z
TLE epoch observation values (Epoch: 2026-04-05T07:55:43.003Z)
Latitude
-0°
Longitude
125.79899°
Altitude
412.671 km
Speed
7.665 km/s
True Right ascension
05h 13m 27s
True Declination
0° 00' 00"
Sunlit
Object was in daylight at epoch
Visualization orbit readout
Latitude
Unknown
Longitude
Unknown
Altitude
Unknown
Speed
Unknown
Apparent Right ascension
Unknown
Apparent Declination
Unknown
Sunlit
N/A
Visualization observer readout
Local Sidereal Time
01:54:22
Azimuth
Unknown
Elevation
Unknown
Doppler factor
Unknown
Orbital elements
Apogee altitude
416.951 km
Perigee altitude
408.448 km
Semi-major axis
6,790.836 km
Eccentricity
0.00063
Inclination
53.0495°
RAAN
78.3655°
Arg. of periapsis
81.375°
True anomaly
278.7259°
Mean anomaly
278.7968°
Eccentric anomaly
278.76135°
Mean motion
3.87845 °/min
Orbital period
92.82 mins
BSTAR
0.0018575
Loading maneuver chart data...
Computing Atmospheric mass density...

Documentation

Showing up to 5 results
|